#timestamp,LO_Frequency,Hit 
1505138415.1,286047003.5,N
1505138435.9,286046999.8,N
1505138455.7,286047002.2,N
1505138475.5,286047001.7,N
1505138495.3,286047003.9,N
1505138515.2,286047004.2,N
1505138535.0,286047004.2,N
1505138535.9,286047004.2,N
1505138555.7,286047003.5,N
1505138575.6,286047003.5,N
1505138595.4,286047000.6,N
1505138615.2,286047000.5,N
1505138635.1,286046999.1,N
1505138636.0,286046999.1,N
1505138655.8,286046998.7,N
1505138675.6,286047002.4,N
1505138695.5,286047003.9,N
1505138715.3,286047003.1,N
1505138735.1,286047004.3,N
1505138755.9,286047003.2,N
1505138775.7,286047003.8,N
1505138795.5,286046999.8,N
1505138815.4,286046996.9,N
1505138835.2,286046998.1,N
1505138855.0,286046998.4,N
1505138855.9,286046998.4,N
1505138875.8,286047001.1,N
1505138895.7,286046999.5,N
1505138915.5,286046997.1,N
1505138935.4,286047000.5,N
1505138955.2,286047003.5,N
1505138975.0,286046999.9,N
1505138975.9,286046999.9,N
1505138995.8,286047002.4,N
1505139015.6,286047000.9,N
1505139035.4,286047002.4,N
1505139055.3,286047002.3,N
1505139075.1,286047000.9,N
1505139076.0,286047000.9,N
1505139095.8,286047000.2,N
1505139115.7,286047003.8,N
1505139135.5,286046999.7,N
1505139155.3,286047002.9,N
1505139175.2,286047000.3,N
1505139195.9,286047002.1,N
1505139215.7,286046999.3,N
1505139235.5,286046996.5,N
1505139255.4,286047002.6,N
1505139275.2,286047002.4,N
1505139295.0,286047002.1,N
1505139295.9,286047002.1,N
1505139315.8,286046999.0,N
1505139335.6,286046999.2,N
1505139355.4,286047000.9,N
1505139375.3,286046996.1,N
1505139395.1,286046997.3,N
1505139415.8,286046998.3,N
1505139435.7,286046998.8,N
1505139455.5,286046996.5,N
1505139475.3,286046996.7,N
1505139495.2,286046995.3,N
1505139515.9,286046995.0,N
1505139535.7,286046999.2,N
1505139555.6,286046995.7,N
1505139575.4,286046996.9,N
1505139595.2,286046996.7,N
1505139615.0,286046999.2,N
1505139616.0,286046999.2,N
1505139635.8,286047000.0,N
1505139655.6,286046998.7,N
1505139675.4,286046998.9,N
1505139695.3,286047002.4,N
1505139715.1,286046998.8,N
1505139735.8,286046997.5,N
1505139755.7,286046994.9,N
1505139775.5,286046997.9,N
1505139795.3,286046997.9,N
1505139815.2,286046994.9,N
1505139835.9,286046999.5,N
1505139855.7,286046999.2,N
1505139875.6,286046997.7,N
1505139895.4,286046995.5,N
1505139915.2,286046998.4,N
1505139935.1,286047000.2,N
1505139936.0,286047000.2,N
1505139955.8,286046998.4,N
1505139975.6,286047000.6,N
1505139995.4,286046998.5,N
1505140015.3,286046998.9,N
1505140035.1,286047001.1,N
1505140055.8,286046996.5,N
1505140075.7,286046998.4,N
1505140095.5,286046997.2,N
1505140115.3,286046995.7,N
1505140135.2,286046992.4,P
1505140155.0,286046994.9,N
1505140155.9,286046994.9,N
1505140175.7,286046997.9,N
1505140195.6,286046995.9,N
1505140215.4,286046999.0,N
1505140235.2,286046996.5,N
1505140255.1,286046998.8,N
1505140256.0,286046998.8,N
1505140275.8,286046998.4,N
1505140295.6,286046998.4,N
1505140315.5,286046998.6,N
1505140335.3,286046997.4,N
1505140355.1,286046995.9,N
1505140375.9,286046991.9,P
1505140395.7,286046999.6,N
1505140415.5,286046998.3,N
1505140435.4,286047002.2,N
1505140455.2,286047003.7,N
1505140475.0,286047001.6,N
1505140475.9,286047001.6,N
1505140495.8,286047000.4,N
1505140515.6,286047004.0,N
1505140535.4,286047006.7,N
1505140555.3,286047007.5,N
1505140575.1,286047009.2,N
1505140576.0,286047009.2,N
1505140595.8,286047003.7,N
1505140615.7,286047000.8,N
1505140635.5,286046999.9,N
1505140655.3,286047000.3,N
1505140675.1,286047000.9,N
1505140695.9,286046999.8,N
1505140715.7,286047001.9,N
1505140735.5,286047000.3,N
1505140755.4,286047000.6,N
1505140775.2,286046999.9,N
1505140795.0,286047000.3,N
1505140795.9,286047000.3,N
1505140815.8,286047001.9,N
1505140835.6,286047004.1,N
1505140855.4,286047007.5,N
1505140875.3,286047009.0,N
1505140895.1,286047006.1,N
1505140896.0,286047006.1,N
1505140915.8,286047007.6,N
1505140935.7,286047006.7,N
1505140955.5,286047006.0,N
1505140975.3,286047005.9,N
1505140995.1,286047003.1,N
1505141015.9,286047005.4,N
1505141035.7,286046999.9,N
1505141055.5,286047004.4,N
1505141075.4,286047003.3,N
1505141095.2,286047004.3,N
1505141115.0,286047005.3,N
1505141115.9,286047005.3,N
1505141135.8,286047004.3,N
1505141155.6,286047004.1,N
1505141175.4,286047000.9,N
1505141195.3,286047002.8,N
1505141215.1,286047000.3,N
1505141216.0,286047000.3,N
1505141235.8,286047002.6,N
1505141255.7,286047001.9,N
1505141275.5,286047001.7,N
1505141295.3,286047003.8,N
1505141315.2,286047004.6,N
1505141335.9,286047005.8,N
1505141355.7,286047003.2,N
1505141375.6,286047003.7,N
1505141395.4,286047002.1,N
1505141415.2,286047003.8,N
1505141435.0,286047000.3,N
1505141435.9,286047000.3,N
1505141455.8,286047001.3,N
1505141475.6,286047004.6,N
1505141495.4,286047005.2,N
1505141515.3,286047004.4,N
1505141535.1,286047003.5,N
1505141555.8,286047003.1,N
1505141575.7,286047006.4,P
1505141595.5,286047005.1,P
1505141615.3,286047004.0,N
1505141635.2,286046999.9,N
1505141655.0,286046998.7,N
1505141655.9,286046998.7,N
1505141675.7,286047000.8,N
1505141695.6,286047002.6,N
1505141715.4,286047001.2,N
1505141735.2,286046996.8,N
1505141755.1,286046994.1,N
1505141756.0,286046994.1,N
1505141775.8,286046994.0,N
1505141795.6,286046995.2,N
1505141815.5,286046995.1,N
1505141835.3,286046994.5,N
1505141855.1,286046995.5,N
1505141875.9,286046995.2,N
1505141895.7,286046995.2,N
1505141915.5,286046999.6,N
1505141935.4,286047001.2,N
1505141955.2,286047001.2,N
1505141975.0,286047002.4,N
1505141975.9,286047002.4,N
1505141995.7,286046998.8,N
